This is the latest recevied weather packets stored in our database for station/object N4XHQ-13. If no packets are shown the sender has not sent any weather packets the latest 10 day(s).
| Time | Temp. | Humidity | Pressure | Rain* | Wind** | Luminosity | Snow |
|---|---|---|---|---|---|---|---|
| 1788565772 | 35.56° C | 42% | 1013.9 hPa | 0 mm | - | 16 W/m² | - |
| 1788565472 | 36.11° C | 41% | 1013.9 hPa | 0 mm | - | 21 W/m² | - |
| 1788565168 | 36.11° C | 41% | 1014 hPa | 0 mm | - | 26 W/m² | - |
| 1788564863 | 36.11° C | 41% | 1013.6 hPa | 0 mm | - | 32 W/m² | - |
| 1788564559 | 36.11° C | 41% | 1013.9 hPa | 0 mm | - | 37 W/m² | - |
| 1788564256 | 35.56° C | 41% | 1013.6 hPa | 0 mm | - | 35 W/m² | - |
| 1788563952 | 35.56° C | 42% | 1013.7 hPa | 0 mm | - | 39 W/m² | - |
| 1788563647 | 35.56° C | 42% | 1013.5 hPa | 0 mm | - | 41 W/m² | - |
| 1788563342 | 36.11° C | 42% | 1013.5 hPa | 0 mm | - | 44 W/m² | - |
| 1788563040 | 36.11° C | 42% | 1013.5 hPa | 0 mm | - | 47 W/m² | - |
| 1788562735 | 36.11° C | 41% | 1013.5 hPa | 0 mm | - | 49 W/m² | - |
| 1788562434 | 36.11° C | 41% | 1013.3 hPa | 0 mm | - | 52 W/m² | - |
| 1788562134 | 36.11° C | 41% | 1013.3 hPa | 0 mm | - | 55 W/m² | - |
| 1788561829 | 36.11° C | 41% | 1013.6 hPa | 0 mm | - | 57 W/m² | - |
| 1788561529 | 36.11° C | 40% | 1013.6 hPa | 0 mm | - | 63 W/m² | - |
| 1788561228 | 36.67° C | 40% | 1013.4 hPa | 0 mm | - | 66 W/m² | - |
| 1788560925 | 36.67° C | 39% | 1013.3 hPa | 0 mm | - | 68 W/m² | - |
| 1788560625 | 36.67° C | 39% | 1013.2 hPa | 0 mm | - | 68 W/m² | - |
| 1788560325 | 36.67° C | 39% | 1013.2 hPa | 0 mm | - | 67 W/m² | - |
| 1788560020 | 36.11° C | 40% | 1013.3 hPa | 0 mm | - | 68 W/m² | - |
| 1788559715 | 36.67° C | 38% | 1013.3 hPa | 0 mm | - | 70 W/m² | - |
| 1788559414 | 36.67° C | 39% | 1013 hPa | 0 mm | - | 71 W/m² | - |
| 1788559109 | 37.22° C | 39% | 1013 hPa | 0 mm | - | 75 W/m² | - |
| 1788558805 | 37.78° C | 38% | 1013 hPa | 0 mm | - | 320 W/m² | - |
| 1788558501 | 38.33° C | 37% | 1013 hPa | 0 mm | - | 356 W/m² | - |
* Rain latest hour (hover to see other rain measurements)
** Current wind speed in m/s (hover to see current wind gust speed)